MOST

Last updated on Sun Apr 12 2026 00:03:41 GMT+0000 (Coordinated Universal Time)

1 27843U 03031D 26101.47489182 .00000069 00000+0 51533-4 0 9999 2 27843 98.7073 110.1262 0011001 85.8857 274.3577 14.21308583181232
UTC large
Height (km)
Speed (km/s)
/
Latitude / Longitude
Inclination (degrees)
Orbital Period (minutes)
Azimuth
Elevation
Range (km)
Doppler Factor

Next 0 passes for location: London (51.5072 / 0.1276)

Sorry there are no passes over London.
MOST